Back to Top

Language: 

My Weather Underground Personal Weather Station Historical Data with Graphs...

Delerius Weather Station Historical Data
Daily Summary for May 30, 2017 Units:  Metric    English   Both
« Previous Day
Next Day »
Daily Weekly Monthly Yearly Custom
  High: Low: Average:
Temperature: 19.6 °C 10.9 °C 15.1 °C
Dew Point: 15.6 °C 9.3 °C 13.3 °C
Humidity: 98 % 67 % 90 %
Wind Speed: 30.6 km/h 0 km/h 7.9 km/h
Wind Gust: 35.4 km/h - -
Wind:- - West
Pressure: 1018.5 hPa 1009.7 hPa -
Precipitation: 1.27 mm    
Historical Graphs
 
 
Tabular Data for May 30, 2017
Time Temperature Dew Point Pressure Wind Wind Speed Wind Gust Humidity Rainfall Rate (Hourly) solar Conditions
00:04 12.9 °C 12.4 °C 1011.1 hPa Calm   6.4 km/h 97 % 0 mm 0 W/m2
00:09 12.9 °C 12.4 °C 1011.1 hPa East 1.6 km/h 6.4 km/h 97 % 0 mm 0 W/m2
00:14 12.8 °C 12.3 °C 1011.1 hPa East 1.6 km/h 6.4 km/h 97 % 0 mm 0 W/m2
00:19 12.8 °C 12.3 °C 1011.1 hPa East 1.6 km/h 6.4 km/h 97 % 0 mm 0 W/m2
00:24 12.8 °C 12.3 °C 1010.7 hPa Calm   3.2 km/h 97 % 0 mm 0 W/m2
00:29 12.8 °C 12.3 °C 1010.7 hPa Calm   3.2 km/h 97 % 0 mm 0 W/m2
00:34 12.9 °C 12.4 °C 1010.7 hPa Calm     97 % 0 mm 0 W/m2
00:40 12.9 °C 12.4 °C 1010.7 hPa Calm   1.6 km/h 97 % 0 mm 0 W/m2
00:45 12.9 °C 12.4 °C 1010.7 hPa Calm   1.6 km/h 97 % 0 mm 0 W/m2
00:50 12.9 °C 12.6 °C 1010.7 hPa Calm   1.6 km/h 98 % 0 mm 0 W/m2
00:55 12.9 °C 12.6 °C 1010.7 hPa Calm   1.6 km/h 98 % 0 mm 0 W/m2
01:00 12.9 °C 12.6 °C 1010.7 hPa Calm   1.6 km/h 98 % 0 mm 0 W/m2
01:05 13 °C 12.7 °C 1010.7 hPa Calm   1.6 km/h 98 % 0 mm 0 W/m2
01:10 13 °C 12.7 °C 1010.4 hPa Calm   3.2 km/h 98 % 0 mm 0 W/m2
01:15 13 °C 12.7 °C 1010.4 hPa Calm   3.2 km/h 98 % 0 mm 0 W/m2
01:20 13.1 °C 12.8 °C 1010.4 hPa Calm   3.2 km/h 98 % 0 mm 0 W/m2
01:25 13.1 °C 12.8 °C 1010.4 hPa Calm   3.2 km/h 98 % 0 mm 0 W/m2
01:30 13.1 °C 12.8 °C 1010.4 hPa Calm   3.2 km/h 98 % 0 mm 0 W/m2
01:32 13.1 °C 12.8 °C 1010.4 hPa Calm   3.2 km/h 98 % 0 mm 0 W/m2
01:37 13.1 °C 12.8 °C 1010.4 hPa Calm     98 % 0 mm 0 W/m2
01:42 13.1 °C 12.8 °C 1010.4 hPa Calm     98 % 0 mm 0 W/m2
01:47 13.1 °C 12.8 °C 1010.4 hPa Calm     98 % 0 mm 0 W/m2
01:52 13.1 °C 12.8 °C 1010.4 hPa Calm     98 % 0 mm 0 W/m2
01:57 13.1 °C 12.8 °C 1010 hPa Calm     98 % 0 mm 0 W/m2
02:02 13.1 °C 12.8 °C 1010 hPa Calm   1.6 km/h 98 % 0 mm 0 W/m2
02:07 13.1 °C 12.8 °C 1010 hPa Calm   1.6 km/h 98 % 0 mm 0 W/m2
02:12 13.1 °C 12.8 °C 1010 hPa Calm     98 % 0 mm 0 W/m2
02:17 13.1 °C 12.8 °C 1010 hPa Calm     98 % 0 mm 0 W/m2
02:22 13.1 °C 12.8 °C 1010 hPa Calm     98 % 0 mm 0 W/m2
02:28 13.2 °C 12.9 °C 1010 hPa Calm     98 % 0 mm 0 W/m2
02:33 13.2 °C 12.9 °C 1010 hPa Calm     98 % 0 mm 0 W/m2
02:38 13.2 °C 12.9 °C 1010 hPa Calm     98 % 0 mm 0 W/m2
02:43 13.2 °C 12.9 °C 1009.7 hPa Calm     98 % 0 mm 0 W/m2
02:48 13.2 °C 12.9 °C 1009.7 hPa Calm     98 % 0 mm 0 W/m2
02:53 13.2 °C 12.9 °C 1009.7 hPa Calm     98 % 0 mm 0 W/m2
02:58 13.2 °C 12.9 °C 1009.7 hPa Calm     98 % 0 mm 0 W/m2
03:03 13.2 °C 12.9 °C 1010 hPa Calm     98 % 0 mm 0 W/m2
03:08 13.3 °C 13 °C 1010 hPa Calm     98 % 0 mm 0 W/m2
03:13 13.3 °C 13 °C 1010 hPa Calm     98 % 0 mm 0 W/m2
03:18 13.3 °C 13 °C 1010 hPa Calm     98 % 0 mm 0 W/m2
03:23 13.3 °C 13 °C 1010 hPa Calm     98 % 0 mm 0 W/m2
03:28 13.3 °C 13 °C 1010 hPa Calm     98 % 0 mm 0 W/m2
03:33 13.3 °C 13 °C 1010 hPa Calm     98 % 0 mm 0 W/m2
03:38 13.3 °C 13 °C 1010 hPa Calm     98 % 0 mm 0 W/m2
03:43 13.3 °C 13 °C 1010 hPa Calm     98 % 0 mm 0 W/m2
03:48 13.3 °C 13 °C 1010 hPa Calm     98 % 0 mm 0 W/m2
03:53 13.3 °C 13 °C 1010 hPa Calm     98 % 0 mm 0 W/m2
03:58 13.3 °C 13 °C 1010 hPa Calm     98 % 0 mm 0 W/m2
04:03 13.3 °C 13 °C 1010 hPa Calm     98 % 0 mm 0 W/m2
04:08 13.3 °C 13 °C 1010 hPa Calm     98 % 0 mm 0 W/m2
04:13 13.3 °C 13 °C 1010 hPa Calm     98 % 0 mm 0 W/m2
04:18 13.3 °C 13 °C 1010 hPa Calm     98 % 0 mm 0 W/m2
04:23 13.3 °C 13 °C 1010 hPa Calm     98 % 0 mm 0 W/m2
04:28 13.3 °C 13 °C 1010 hPa Calm   6.4 km/h 98 % 0 mm 0 W/m2
04:33 13.3 °C 13 °C 1010 hPa Calm   6.4 km/h 98 % 0 mm 0 W/m2
04:38 13.3 °C 13 °C 1010 hPa Calm   3.2 km/h 98 % 0 mm 0 W/m2
04:43 13.3 °C 13 °C 1010 hPa Calm   3.2 km/h 98 % 0 mm 0 W/m2
04:48 13.4 °C 13.1 °C 1010 hPa WNW 1.6 km/h 8 km/h 98 % 0 mm 0 W/m2
04:54 13.4 °C 13.1 °C 1010 hPa NW 3.2 km/h 9.7 km/h 98 % 0 mm 0 W/m2
04:59 13.4 °C 13.1 °C 1010 hPa NW 1.6 km/h 9.7 km/h 98 % 0 mm 0 W/m2
05:04 13.4 °C 13.1 °C 1010.4 hPa Calm   3.2 km/h 98 % 0 mm 0 W/m2
05:09 13.4 °C 13.1 °C 1010.4 hPa Calm     98 % 0 mm 0 W/m2
05:14 13.4 °C 13.1 °C 1010 hPa Calm     98 % 0 mm 5 W/m2
05:19 13.4 °C 13.1 °C 1010 hPa Calm   1.6 km/h 98 % 0 mm 9 W/m2
05:24 13.5 °C 13.2 °C 1010.4 hPa Calm   1.6 km/h 98 % 0 mm 7 W/m2
05:29 13.5 °C 13.2 °C 1010.4 hPa Calm     98 % 0 mm 14 W/m2
05:34 13.5 °C 13.2 °C 1010.4 hPa Calm     98 % 0 mm 9 W/m2
05:39 13.5 °C 13.2 °C 1010.4 hPa Calm     98 % 0 mm 9 W/m2
05:44 13.6 °C 13.3 °C 1010.4 hPa Calm     98 % 0 mm 11 W/m2
05:49 13.6 °C 13.3 °C 1010.4 hPa Calm     98 % 0 mm 12 W/m2
05:54 13.6 °C 13.3 °C 1010.4 hPa Calm     98 % 0 mm 23 W/m2
05:59 13.7 °C 13.4 °C 1010.4 hPa Calm     98 % 0 mm 26 W/m2
06:04 13.7 °C 13.4 °C 1010.4 hPa Calm     98 % 0 mm 33 W/m2
06:09 13.7 °C 13.4 °C 1010.4 hPa Calm   6.4 km/h 98 % 0 mm 44 W/m2
06:14 13.7 °C 13.4 °C 1010 hPa NW 1.6 km/h 6.4 km/h 98 % 0 mm 58 W/m2
06:19 13.8 °C 13.5 °C 1010.4 hPa WNW 1.6 km/h 6.4 km/h 98 % 0 mm 46 W/m2
06:24 13.8 °C 13.5 °C 1010.4 hPa Calm   6.4 km/h 98 % 0 mm 39 W/m2
06:29 13.8 °C 13.5 °C 1010.4 hPa Calm     98 % 0 mm 40 W/m2
06:34 13.8 °C 13.5 °C 1010.4 hPa Calm   1.6 km/h 98 % 0 mm 46 W/m2
06:39 13.9 °C 13.6 °C 1010.4 hPa Calm   1.6 km/h 98 % 0 mm 56 W/m2
06:44 13.9 °C 13.6 °C 1010.4 hPa Calm     98 % 0 mm 60 W/m2
06:49 13.9 °C 13.6 °C 1010.4 hPa Calm     98 % 0 mm 49 W/m2
06:54 13.9 °C 13.6 °C 1010.4 hPa Calm   3.2 km/h 98 % 0 mm 53 W/m2
06:59 13.9 °C 13.6 °C 1010.4 hPa South 1.6 km/h 8 km/h 98 % 0 mm 56 W/m2
07:04 13.9 °C 13.6 °C 1010.4 hPa SW 4.8 km/h 12.9 km/h 98 % 0 mm 69 W/m2
07:09 13.9 °C 13.6 °C 1010.4 hPa WSW 4.8 km/h 12.9 km/h 98 % 0 mm 77 W/m2
07:15 14 °C 13.7 °C 1010.7 hPa West 1.6 km/h 8 km/h 98 % 0 mm 79 W/m2
07:20 14.1 °C 13.8 °C 1010.7 hPa West 1.6 km/h 11.3 km/h 98 % 0 mm 111 W/m2
07:25 14.1 °C 13.8 °C 1010.7 hPa West 3.2 km/h 12.9 km/h 98 % 0 mm 127 W/m2
07:30 14.2 °C 13.9 °C 1010.7 hPa West 4.8 km/h 12.9 km/h 98 % 0 mm 128 W/m2
07:35 14.2 °C 13.9 °C 1010.7 hPa West 4.8 km/h 11.3 km/h 98 % 0 mm 128 W/m2
07:40 14.3 °C 14 °C 1010.7 hPa West 6.4 km/h 17.7 km/h 98 % 0 mm 135 W/m2
07:45 14.4 °C 14.1 °C 1010.7 hPa West 6.4 km/h 17.7 km/h 98 % 0 mm 127 W/m2
07:50 14.4 °C 14.1 °C 1010.7 hPa West 8 km/h 12.9 km/h 98 % 0 mm 111 W/m2
07:55 14.6 °C 14.3 °C 1010.7 hPa West 8 km/h 12.9 km/h 98 % 0 mm 98 W/m2
08:00 14.5 °C 14.1 °C 1011.1 hPa West 6.4 km/h 14.5 km/h 97 % 0 mm 104 W/m2
08:05 14.6 °C 14.1 °C 1011.1 hPa West 6.4 km/h 14.5 km/h 97 % 0 mm 123 W/m2
08:10 14.6 °C 14.1 °C 1011.1 hPa West 8 km/h 12.9 km/h 97 % 0 mm 137 W/m2
08:15 14.6 °C 14.1 °C 1011.1 hPa WSW 9.7 km/h 14.5 km/h 97 % 0 mm 132 W/m2
08:20 14.6 °C 14.1 °C 1011.1 hPa West 9.7 km/h 16.1 km/h 97 % 0 mm 125 W/m2
08:25 14.6 °C 14.1 °C 1011.1 hPa West 8 km/h 16.1 km/h 97 % 0 mm 54 W/m2
08:30 14.6 °C 13.9 °C 1011.1 hPa West 8 km/h 20.9 km/h 96 % 0 mm 69 W/m2
08:35 14.5 °C 13.9 °C 1011.1 hPa West 9.7 km/h 20.9 km/h 96 % 0 mm 70 W/m2
08:40 14.5 °C 13.9 °C 1011.4 hPa West 8 km/h 14.5 km/h 96 % 0 mm 70 W/m2
08:45 14.6 °C 13.9 °C 1011.4 hPa West 8 km/h 12.9 km/h 96 % 0 mm 72 W/m2
08:50 14.6 °C 13.9 °C 1011.4 hPa WNW 4.8 km/h 11.3 km/h 96 % 0 mm 107 W/m2
08:55 14.6 °C 13.8 °C 1011.4 hPa West 6.4 km/h 14.5 km/h 95 % 0 mm 114 W/m2
09:00 14.7 °C 13.9 °C 1011.4 hPa West 8 km/h 14.5 km/h 95 % 0 mm 148 W/m2
09:05 14.7 °C 13.9 °C 1011.4 hPa West 6.4 km/h 14.5 km/h 95 % 0 mm 74 W/m2
09:10 14.8 °C 14 °C 1011.4 hPa West 8 km/h 12.9 km/h 95 % 0 mm 123 W/m2
09:15 14.8 °C 14 °C 1011.4 hPa West 8 km/h 14.5 km/h 95 % 0 mm 104 W/m2
09:20 14.7 °C 13.7 °C 1011.4 hPa WSW 8 km/h 14.5 km/h 94 % 0 mm 134 W/m2
09:25 14.8 °C 13.8 °C 1011.4 hPa WSW 8 km/h 16.1 km/h 94 % 0 mm 186 W/m2
09:30 14.9 °C 13.9 °C 1011.4 hPa WSW 9.7 km/h 16.1 km/h 94 % 0 mm 221 W/m2
09:35 15 °C 14.1 °C 1011.4 hPa West 8 km/h 12.9 km/h 94 % 0 mm 311 W/m2
09:40 15.2 °C 14.2 °C 1011.4 hPa WSW 8 km/h 16.1 km/h 94 % 0 mm 345 W/m2
09:45 15.4 °C 14.4 °C 1011.7 hPa West 8 km/h 16.1 km/h 94 % 0 mm 258 W/m2
09:50 15.5 °C 14.2 °C 1011.7 hPa West 9.7 km/h 17.7 km/h 92 % 0 mm 260 W/m2
09:55 15.6 °C 14.1 °C 1011.7 hPa West 12.9 km/h 22.5 km/h 91 % 0 mm 239 W/m2
10:00 15.7 °C 13.9 °C 1011.7 hPa West 12.9 km/h 22.5 km/h 89 % 0 mm 246 W/m2
10:05 15.8 °C 14 °C 1011.7 hPa West 12.9 km/h 20.9 km/h 89 % 0 mm 230 W/m2
10:10 15.8 °C 13.8 °C 1011.7 hPa West 12.9 km/h 20.9 km/h 88 % 0 mm 265 W/m2
10:15 15.9 °C 13.9 °C 1011.7 hPa West 12.9 km/h 20.9 km/h 88 % 0 mm 250 W/m2
10:20 16 °C 14 °C 1011.7 hPa West 11.3 km/h 19.3 km/h 88 % 0 mm 192 W/m2
10:25 16.1 °C 13.9 °C 1012.1 hPa West 11.3 km/h 20.9 km/h 87 % 0 mm 202 W/m2
10:30 16.1 °C 14.1 °C 1012.1 hPa West 12.9 km/h 20.9 km/h 88 % 0 mm 220 W/m2
10:35 16 °C 14.2 °C 1012.1 hPa West 9.7 km/h 17.7 km/h 89 % 0 mm 227 W/m2
10:40 16 °C 14.3 °C 1012.1 hPa WSW 9.7 km/h 16.1 km/h 90 % 0 mm 297 W/m2
10:45 15.9 °C 14.3 °C 1012.1 hPa West 9.7 km/h 17.7 km/h 90 % 0 mm 302 W/m2
10:50 15.9 °C 14.3 °C 1012.1 hPa West 9.7 km/h 17.7 km/h 90 % 0 mm 251 W/m2
10:51 15.9 °C 14.1 °C 1012.1 hPa WSW 9.7 km/h 19.3 km/h 89 % 0 mm 250 W/m2
10:57 15.8 °C 14 °C 1012.1 hPa WSW 9.7 km/h 19.3 km/h 89 % 0 mm 186 W/m2
11:02 15.8 °C 14.2 °C 1012.1 hPa WSW 11.3 km/h 20.9 km/h 90 % 0 mm 190 W/m2
11:07 15.7 °C 14.2 °C 1012.1 hPa West 11.3 km/h 20.9 km/h 91 % 0.25 mm 239 W/m2
11:12 15.7 °C 14.4 °C 1012.1 hPa West 9.7 km/h 16.1 km/h 92 % 0.25 mm 323 W/m2
11:17 15.7 °C 14.4 °C 1012.1 hPa West 8 km/h 14.5 km/h 92 % 0.25 mm 438 W/m2
11:22 15.8 °C 14.7 °C 1012.1 hPa West 8 km/h 14.5 km/h 93 % 0.25 mm 503 W/m2
11:27 16.1 °C 14.9 °C 1012.1 hPa West 9.7 km/h 17.7 km/h 93 % 0.25 mm 492 W/m2
11:32 16.6 °C 15.6 °C 1012.1 hPa West 11.3 km/h 17.7 km/h 94 % 0.25 mm 810 W/m2
11:37 16.9 °C 15.2 °C 1012.1 hPa WNW 11.3 km/h 19.3 km/h 90 % 0.25 mm 306 W/m2
11:42 17.1 °C 15.1 °C 1012.1 hPa WNW 11.3 km/h 19.3 km/h 88 % 0.25 mm 193 W/m2
11:47 17.2 °C 14.8 °C 1012.1 hPa West 9.7 km/h 20.9 km/h 86 % 0.25 mm 163 W/m2
11:52 17.1 °C 14.7 °C 1012.1 hPa West 11.3 km/h 24.1 km/h 86 % 0.25 mm 216 W/m2
11:57 17 °C 14.3 °C 1012.4 hPa West 12.9 km/h 24.1 km/h 84 % 0.25 mm 415 W/m2
12:02 17 °C 14.3 °C 1012.4 hPa West 14.5 km/h 24.1 km/h 84 % 0.25 mm 536 W/m2
12:07 17.1 °C 14.2 °C 1012.4 hPa West 16.1 km/h 30.6 km/h 83 % 0 mm 448 W/m2
12:12 17.2 °C 14.1 °C 1012.4 hPa West 17.7 km/h 30.6 km/h 82 % 0 mm 529 W/m2
12:17 17.4 °C 14.1 °C 1012.4 hPa West 14.5 km/h 30.6 km/h 81 % 0 mm 540 W/m2
12:22 17.6 °C 14.5 °C 1012.1 hPa West 11.3 km/h 20.9 km/h 82 % 0 mm 452 W/m2
12:27 17.8 °C 14.3 °C 1012.1 hPa West 12.9 km/h 19.3 km/h 80 % 0 mm 383 W/m2
12:32 17.9 °C 14.4 °C 1012.1 hPa West 12.9 km/h 19.3 km/h 80 % 0 mm 390 W/m2
12:37 18 °C 14.5 °C 1012.1 hPa West 12.9 km/h 22.5 km/h 80 % 0 mm 566 W/m2
12:42 18 °C 14.1 °C 1012.1 hPa West 16.1 km/h 29 km/h 78 % 0 mm 526 W/m2
12:47 17.9 °C 14 °C 1012.1 hPa WSW 17.7 km/h 29 km/h 78 % 0 mm 563 W/m2
12:52 18 °C 14.3 °C 1012.1 hPa West 16.1 km/h 24.1 km/h 79 % 0 mm 429 W/m2
12:57 18.1 °C 14.2 °C 1012.4 hPa West 14.5 km/h 22.5 km/h 78 % 0 mm 357 W/m2
13:02 18.1 °C 14.2 °C 1012.4 hPa West 14.5 km/h 22.5 km/h 78 % 0 mm 179 W/m2
13:07 17.9 °C 13.8 °C 1012.4 hPa West 14.5 km/h 25.7 km/h 77 % 0 mm 206 W/m2
13:12 17.8 °C 13.7 °C 1012.4 hPa West 14.5 km/h 25.7 km/h 77 % 0 mm 176 W/m2
13:17 17.6 °C 13.5 °C 1012.4 hPa West 12.9 km/h 22.5 km/h 77 % 0 mm 137 W/m2
13:22 17.4 °C 13.7 °C 1012.4 hPa West 11.3 km/h 22.5 km/h 79 % 0 mm 297 W/m2
13:27 17.4 °C 13.9 °C 1012.4 hPa West 9.7 km/h 17.7 km/h 80 % 0 mm 292 W/m2
13:32 17.6 °C 14.1 °C 1012.4 hPa West 11.3 km/h 17.7 km/h 80 % 0 mm 288 W/m2
13:37 17.7 °C 14.2 °C 1012.1 hPa WNW 9.7 km/h 17.7 km/h 80 % 0 mm 214 W/m2
13:42 17.7 °C 14.2 °C 1012.4 hPa WNW 9.7 km/h 17.7 km/h 80 % 0 mm 148 W/m2
13:47 17.7 °C 14 °C 1012.4 hPa WNW 11.3 km/h 22.5 km/h 79 % 0 mm 114 W/m2
13:52 17.6 °C 13.9 °C 1012.4 hPa WNW 12.9 km/h 24.1 km/h 79 % 0 mm 84 W/m2
13:57 17.3 °C 14.2 °C 1012.4 hPa WNW 16.1 km/h 24.1 km/h 82 % 0 mm 109 W/m2
14:02 16.8 °C 13.9 °C 1012.8 hPa West 16.1 km/h 30.6 km/h 83 % 0 mm 149 W/m2
14:07 16.6 °C 14.1 °C 1012.8 hPa WNW 12.9 km/h 30.6 km/h 85 % 0 mm 221 W/m2
14:12 16.3 °C 13.8 °C 1012.8 hPa WNW 12.9 km/h 22.5 km/h 85 % 0 mm 137 W/m2
14:17 16.2 °C 13.7 °C 1012.8 hPa West 12.9 km/h 22.5 km/h 85 % 0 mm 207 W/m2
14:22 16.1 °C 13.8 °C 1012.8 hPa West 11.3 km/h 19.3 km/h 86 % 0 mm 276 W/m2
14:27 16.2 °C 13.7 °C 1012.8 hPa West 9.7 km/h 19.3 km/h 85 % 0 mm 230 W/m2
14:32 16.2 °C 13.5 °C 1012.8 hPa West 11.3 km/h 24.1 km/h 84 % 0 mm 202 W/m2
14:37 16.2 °C 13.3 °C 1012.8 hPa West 11.3 km/h 24.1 km/h 83 % 0 mm 137 W/m2
14:42 16.2 °C 13.1 °C 1012.8 hPa West 12.9 km/h 22.5 km/h 82 % 0 mm 104 W/m2
14:47 16.1 °C 13 °C 1012.8 hPa West 14.5 km/h 24.1 km/h 82 % 0 mm 125 W/m2
14:52 16.1 °C 13 °C 1012.8 hPa West 14.5 km/h 24.1 km/h 82 % 0 mm 178 W/m2
14:54 16.1 °C 13 °C 1012.8 hPa West 14.5 km/h 24.1 km/h 82 % 0 mm 190 W/m2
14:58 16.2 °C 13.1 °C 1012.8 hPa West 12.9 km/h 19.3 km/h 82 % 0 mm 202 W/m2
15:03 16.3 °C 13.4 °C 1012.8 hPa West 12.9 km/h 20.9 km/h 83 % 0 mm 241 W/m2
15:08 16.4 °C 13.5 °C 1012.8 hPa West 11.3 km/h 20.9 km/h 83 % 0 mm 204 W/m2
15:13 16.7 °C 13.6 °C 1012.8 hPa WSW 11.3 km/h 22.5 km/h 82 % 0 mm 255 W/m2
15:18 16.9 °C 13.6 °C 1012.8 hPa West 14.5 km/h 25.7 km/h 81 % 0 mm 294 W/m2
15:23 17.1 °C 13.6 °C 1012.8 hPa West 16.1 km/h 25.7 km/h 80 % 0 mm 250 W/m2
15:28 17.2 °C 13.7 °C 1012.8 hPa West 16.1 km/h 30.6 km/h 80 % 0 mm 163 W/m2
15:33 17.2 °C 13.7 °C 1012.8 hPa WSW 16.1 km/h 32.2 km/h 80 % 0 mm 120 W/m2
15:38 17.1 °C 13.4 °C 1012.8 hPa WSW 16.1 km/h 32.2 km/h 79 % 0 mm 188 W/m2
15:43 17 °C 13.5 °C 1012.8 hPa West 16.1 km/h 24.1 km/h 80 % 0 mm 232 W/m2
15:48 17.1 °C 13.6 °C 1012.8 hPa West 16.1 km/h 25.7 km/h 80 % 0 mm 278 W/m2
15:53 17.3 °C 13.6 °C 1012.8 hPa WSW 14.5 km/h 25.7 km/h 79 % 0 mm 294 W/m2
15:58 17.6 °C 13.9 °C 1012.8 hPa WSW 12.9 km/h 25.7 km/h 79 % 0 mm 276 W/m2
16:03 17.7 °C 13.6 °C 1012.8 hPa West 14.5 km/h 29 km/h 77 % 0 mm 267 W/m2
16:08 17.8 °C 13.7 °C 1013.1 hPa West 16.1 km/h 29 km/h 77 % 0 mm 320 W/m2
16:13 18 °C 13.7 °C 1013.1 hPa West 16.1 km/h 25.7 km/h 76 % 0 mm 278 W/m2
16:18 18.1 °C 13.8 °C 1013.1 hPa West 17.7 km/h 33.8 km/h 76 % 0 mm 323 W/m2
16:23 18.4 °C 14.3 °C 1013.1 hPa West 17.7 km/h 33.8 km/h 77 % 0 mm 513 W/m2
16:28 18.9 °C 14.2 °C 1013.1 hPa West 17.7 km/h 33.8 km/h 74 % 0 mm 387 W/m2
16:30 18.9 °C 13.9 °C 1013.1 hPa West 19.3 km/h 35.4 km/h 73 % 0 mm 462 W/m2
16:35 19.2 °C 14.1 °C 1013.1 hPa West 19.3 km/h 35.4 km/h 72 % 0 mm 520 W/m2
16:40 19.4 °C 14.2 °C 1013.1 hPa West 16.1 km/h 35.4 km/h 72 % 0 mm 858 W/m2
16:45 19.6 °C 13.6 °C 1013.1 hPa West 16.1 km/h 35.4 km/h 68 % 0 mm 765 W/m2
16:50 19.6 °C 13.3 °C 1013.1 hPa West 16.1 km/h 35.4 km/h 67 % 0 mm 213 W/m2
16:55 19.4 °C 13.3 °C 1013.1 hPa West 16.1 km/h 32.2 km/h 68 % 0 mm 213 W/m2
17:00 19.4 °C 13.8 °C 1013.1 hPa West 16.1 km/h 32.2 km/h 70 % 0 mm 302 W/m2
17:05 19.4 °C 13.3 °C 1013.4 hPa West 16.1 km/h 32.2 km/h 68 % 0 mm 721 W/m2
17:10 19.3 °C 13.2 °C 1013.4 hPa West 17.7 km/h 32.2 km/h 68 % 0 mm 172 W/m2
17:15 18.9 °C 12.9 °C 1013.4 hPa West 19.3 km/h 30.6 km/h 68 % 0 mm 179 W/m2
17:20 18.7 °C 13.1 °C 1013.4 hPa West 19.3 km/h 29 km/h 70 % 0 mm 202 W/m2
17:25 18.6 °C 13.4 °C 1013.4 hPa West 16.1 km/h 29 km/h 72 % 0 mm 158 W/m2
17:30 18.4 °C 13.3 °C 1013.8 hPa West 16.1 km/h 32.2 km/h 72 % 0 mm 109 W/m2
17:36 18.3 °C 13.2 °C 1013.8 hPa West 17.7 km/h 33.8 km/h 72 % 0 mm 104 W/m2
17:40 18.1 °C 13.2 °C 1013.8 hPa West 17.7 km/h 33.8 km/h 73 % 0 mm 123 W/m2
17:45 18.1 °C 13.4 °C 1013.8 hPa West 14.5 km/h 24.1 km/h 74 % 0 mm 116 W/m2
18:15 17.8 °C 14.3 °C 1013.8 hPa WNW 19.3 km/h 19.3 km/h 80 % 0 mm 60 W/m2
18:30 17.4 °C 14.3 °C 1013.8 hPa WNW 11.3 km/h 11.3 km/h 82 % 0 mm 49 W/m2
18:45 17.1 °C 14.5 °C 1014.4 hPa WNW 30.6 km/h 30.6 km/h 85 % 1.02 mm 36 W/m2
19:00 16.2 °C 14.3 °C 1014.4 hPa West 14.5 km/h 14.5 km/h 89 % 1.02 mm 101 W/m2
19:15 16 °C 14.3 °C 1014.8 hPa WNW 22.5 km/h 22.5 km/h 90 % 1.02 mm 298 W/m2
19:30 16 °C 14 °C 1014.8 hPa WNW 24.1 km/h 24.1 km/h 88 % 1.02 mm 115 W/m2
19:45 15.8 °C 13.8 °C 1014.8 hPa WNW 20.9 km/h 20.9 km/h 88 % 0 mm 112 W/m2
20:00 15.7 °C 13.7 °C 1015.1 hPa WNW 25.7 km/h 25.7 km/h 88 % 0 mm 76 W/m2
20:15 15.7 °C 13.7 °C 1015.1 hPa WNW 22.5 km/h 22.5 km/h 88 % 0 mm 50 W/m2
20:30 15.6 °C 13.6 °C 1015.5 hPa WNW 17.7 km/h 17.7 km/h 88 % 0 mm 22 W/m2
20:45 15.3 °C 13.6 °C 1015.8 hPa WNW 16.1 km/h 16.1 km/h 89 % 0 mm 15 W/m2
21:00 15.2 °C 13.6 °C 1015.8 hPa WNW 17.7 km/h 17.7 km/h 90 % 0 mm 10 W/m2
21:28 14.7 °C 13.4 °C 1016.5 hPa WNW 11.3 km/h 12.9 km/h 92 % 0 mm 0 W/m2
21:33 14.7 °C 13.4 °C 1016.5 hPa WNW 11.3 km/h 14.5 km/h 92 % 0 mm 0 W/m2
21:38 14.6 °C 13.3 °C 1016.5 hPa WNW 9.7 km/h 14.5 km/h 92 % 0 mm 0 W/m2
21:43 14.5 °C 13.2 °C 1016.5 hPa WNW 11.3 km/h 19.3 km/h 92 % 0 mm 0 W/m2
21:48 14.4 °C 13.1 °C 1016.8 hPa WNW 11.3 km/h 19.3 km/h 92 % 0 mm 0 W/m2
21:53 14.3 °C 13 °C 1016.8 hPa WNW 12.9 km/h 19.3 km/h 92 % 0 mm 0 W/m2
21:58 14.1 °C 12.8 °C 1016.8 hPa WNW 12.9 km/h 24.1 km/h 92 % 0 mm 0 W/m2
22:03 14 °C 12.7 °C 1016.8 hPa WNW 12.9 km/h 24.1 km/h 92 % 0 mm 0 W/m2
22:08 13.9 °C 12.6 °C 1016.8 hPa WNW 11.3 km/h 17.7 km/h 92 % 0 mm 0 W/m2
22:13 13.7 °C 12.4 °C 1017.2 hPa WNW 9.7 km/h 16.1 km/h 92 % 0 mm 0 W/m2
22:18 13.6 °C 12.3 °C 1016.8 hPa WNW 11.3 km/h 16.1 km/h 92 % 0 mm 0 W/m2
22:23 13.4 °C 12.1 °C 1017.2 hPa WNW 11.3 km/h 22.5 km/h 92 % 0 mm 0 W/m2
22:28 13.2 °C 11.8 °C 1017.2 hPa WNW 12.9 km/h 24.1 km/h 91 % 0 mm 0 W/m2
22:33 13.1 °C 11.5 °C 1017.2 hPa WNW 11.3 km/h 24.1 km/h 90 % 0 mm 0 W/m2
22:38 12.9 °C 11.3 °C 1017.2 hPa WNW 8 km/h 16.1 km/h 90 % 0 mm 0 W/m2
22:43 12.8 °C 11.2 °C 1017.5 hPa West 6.4 km/h 14.5 km/h 90 % 0 mm 0 W/m2
22:48 12.7 °C 11.1 °C 1017.5 hPa WNW 3.2 km/h 9.7 km/h 90 % 0 mm 0 W/m2
22:53 12.5 °C 10.9 °C 1017.5 hPa WNW 4.8 km/h 11.3 km/h 90 % 0 mm 0 W/m2
22:58 12.4 °C 10.8 °C 1017.5 hPa West 4.8 km/h 11.3 km/h 90 % 0 mm 0 W/m2
23:03 12.2 °C 10.6 °C 1017.5 hPa WNW 4.8 km/h 9.7 km/h 90 % 0 mm 0 W/m2
23:09 12.1 °C 10.5 °C 1017.5 hPa WNW 3.2 km/h 8 km/h 90 % 0 mm 0 W/m2
23:14 11.9 °C 10.3 °C 1017.8 hPa WNW 1.6 km/h 6.4 km/h 90 % 0 mm 0 W/m2
23:19 11.7 °C 10.1 °C 1017.8 hPa Calm   6.4 km/h 90 % 0 mm 0 W/m2
23:24 11.6 °C 10 °C 1018.2 hPa Calm   3.2 km/h 90 % 0 mm 0 W/m2
23:29 11.4 °C 9.7 °C 1018.2 hPa NW 1.6 km/h 8 km/h 89 % 0 mm 0 W/m2
23:39 11.3 °C 9.7 °C 1018.5 hPa SW 1.6 km/h 9.7 km/h 90 % 0 mm 0 W/m2
23:44 11.3 °C 9.7 °C 1018.5 hPa South 1.6 km/h 8 km/h 90 % 0 mm 0 W/m2
23:49 11.3 °C 9.7 °C 1018.5 hPa South 3.2 km/h 8 km/h 90 % 0 mm 0 W/m2
23:54 11.1 °C 9.3 °C 1018.5 hPa WSW 3.2 km/h 8 km/h 89 % 0 mm 0 W/m2
23:59 10.9 °C 9.3 °C 1018.5 hPa WNW 4.8 km/h 9.7 km/h 90 % 0 mm 0 W/m2
Delerius-Weather
Compliments of Weather Underground - 2.25 mb

Data updates at regular intervals.